Regional Weather Roundup
Issued by NWS

Home | Current Version | Previous Version | Graphics & Text | Print | Product List | Glossary On
Versions: 1 2 3 4 5 6 7 8 9 10 11 12 13 14 15 16 17 18 19 20 21 22 23 24 25 26 27 28 29 30 31 32 33 34 35 36 37 38 39 40 41 42 43 44 45 46 47 48 49 50
000
ASUS45 KBOU 300907
RWRCO

WEATHER ROUNDUP FOR COLORADO
NATIONAL WEATHER SERVICE DENVER/BOULDER CO
300 AM MDT SUN AUG 30 2015

NOTE: "FAIR" INDICATES FEW OR NO CLOUDS BELOW 12000 FEET WITH NO
SIGNIFICANT WEATHER AND/OR OBSTRUCTIONS TO VISIBILITY.

COZ001>005-013-030-031-301000-
...NORTHWEST COLORADO...

CITY           SKY/WX    TMP DP  RH WIND       PRES   REMARKS
CRAIG          CLEAR     49  44  83 CALM      30.17F
HAYDEN         NOT AVBL
MEEKER         CLEAR     53  40  61 E7        30.19F
MOUNT WERNER   NOT AVBL
STEAMBOAT SPGS PTCLDY    50  39  66 CALM      30.24R
WALDEN         PTCLDY    41  32  70 SE3       30.32S
$$

COZ006>008-011-301000-
...WEST CENTRAL VALLEYS...

CITY           SKY/WX    TMP DP  RH WIND       PRES   REMARKS
GRAND JUNCTION CLEAR     65  41  41 E7        30.06F
MONTROSE       CLEAR     61  42  49 SE9       30.19S
EAGLE          PTCLDY    52  41  66 E5        30.27S
RIFLE          CLEAR     57  44  62 SE3       30.15S
DELTA          CLEAR     64  45  49 NE10      30.14R
NUCLA          PTCLDY    63  39  42 E7        30.22R
$$

COZ017>023-064>068-301000-
...SOUTHWEST COLORADO...

CITY           SKY/WX    TMP DP  RH WIND       PRES   REMARKS
DURANGO        CLEAR     53  45  74 CALM      30.30S
CORTEZ         CLEAR     59  45  59 E3        30.20S
PAGOSA SPRINGS CLEAR     52  44  74 CALM      30.39S
TELLURIDE      CLEAR     59  38  46 NE3       30.46F
WOLF CREEK PAS CLEAR     45  37  76 SW18      30.69S
$$

COZ009-010-012-014-032>034-037-058>063-301000-
...CENTRAL COLORADO...

CITY           SKY/WX    TMP DP  RH WIND       PRES   REMARKS
ASPEN          CLEAR     52  37  56 SW7       30.32S
BUENA VISTA    PTCLDY    49  38  66 W6        30.37S
COPPER MTN     PTCLDY    54  28  37 SW7       30.64S
BERTHOUD PASS  FAIR      45  32  61 W20G29    30.67S
COTTONWOOD PAS PTCLDY    55  36  47 CALM      30.49S
GUNNISON       CLEAR     45  37  76 CALM      30.39S
KREMMLING      PTCLDY    46  39  76 CALM      30.32S
LEADVILLE      CLEAR     43  35  73 E3        30.49R
MONARCH PASS   PTCLDY    46  32  57 SW16      30.74S
SALIDA         PTCLDY    58  43  56 NW5       30.40S
SUNLIGHT       CLEAR     54  32  43 CALM      30.55F
WILKERSON PASS PTCLDY    48  32  53 W6        30.61S
$$

COZ069>075-301000-
...SAN LUIS VALLEY/SANGRE DE CRISTO MOUNTAINS...

CITY           SKY/WX    TMP DP  RH WIND       PRES   REMARKS
ALAMOSA        MOCLDY    52  42  69 E5        30.35S
LA VETA PASS   CLEAR     52  37  58 S14G25    30.51F
SAGUACHE       NOT AVBL
$$

COZ035-036-038>040-301000-
...NORTHERN COLORADO FRONT RANGE...

CITY           SKY/WX    TMP DP  RH WIND       PRES   REMARKS
DENVER INTL AP PTCLDY    69  39  33 S16       30.08F
DMNS CITY PARK   N/A     70  39  32 SE10      30.08S
AURORA         NOT AVBL
FRONT RANGE AP NOT AVBL
ERIE MUNI ARPT PTCLDY    58  46  65 CALM      30.08S
BOULDER MUN AP PTCLDY    64  46  52 CALM      30.08S
CENTENNIAL     PTCLDY    66  41  40 SE8       30.14F
BROOMFIELD     PTCLDY    70  41  35 CALM      30.11S
FORT COLLINS   CLEAR     57  46  67 N8        30.08F
LONGMONT       CLEAR     59  48  66 CALM      30.08F
$$

COZ041-046-047-076>085-087-088-301000-
...PIKES PEAK/PALMER DIVIDE AND SOUTHERN FOOTHILLS...

CITY           SKY/WX    TMP DP  RH WIND       PRES   REMARKS
COLO. SPRINGS  MOCLDY    60  41  49 NE7       30.22F
A. F. ACADEMY  NOT AVBL
ELLICOTT       MOCLDY   N/A N/A N/A SE9       30.19F
FALCON         MOCLDY    55  45  68 MISG      30.26S
FORT CARSON    CLOUDY    59  44  58 N8        30.18F
LIMON          PTCLDY    51  43  74 SE5       30.17F
MONUMENT HILL  PTCLDY    54  43  66 SW7       30.25S
TRINIDAD       CLEAR     65  50  58 SW10      30.18F
$$

COZ042>045-048>051-090-091-301000-
...NORTHEAST COLORADO...

CITY           SKY/WX    TMP DP  RH WIND       PRES   REMARKS
GREELEY ARPT   CLEAR     59  45  58 NE7       30.06S
AKRON          PTCLDY    68  44  42 S16G25    30.09F
BURLINGTON     CLEAR     63  45  51 S12       30.13S
WRAY           CLEAR     67  45  44 SW9       30.07F
STERLING       PTCLDY    63  45  51 S5        30.04F
HOLYOKE        CLEAR     59  46  63 S6        30.06F
FORT MORGAN    PTCLDY    63  41  44 SE7       30.07F
$$

COZ086-089-092>099-301000-
...SOUTHEAST COLORADO...

CITY           SKY/WX    TMP DP  RH WIND       PRES   REMARKS
PUEBLO         PTCLDY    64  44  48 N7        30.10F
LA JUNTA       CLEAR     70  43  37 S7        30.09F
LAMAR          CLEAR     63  47  55 S9        30.09F
SPRINGFIELD      N/A     55  47  74 SW8       30.15F
$$




USA.gov is the U.S. government's official web portal to all federal, state and local government web resources and services.